Pope Field Airport, NC

1:46 AM EST on December 17, 2017 (GMT -0500)
Pope Field Airport

Weather History for KPOB - April, 2014

Change the Weather History Date:

Thursday, April 10, 2014

  Actual Average Record
Temperature  
Mean Temperature 58 °F -  
Max Temperature 75 °F 69 °F 93 °F (2001)
Min Temperature 41 °F 46 °F 28 °F (2007)
Degree Days  
Heating Degree Days 7    
Growing Degree Days 8 (Base 50)    
Moisture  
Dew Point 41 °F    
Average Humidity 55    
Maximum Humidity 91    
Minimum Humidity 28    
Precipitation  
Precipitation 0.00 in - - ()
Sea Level Pressure  
Sea Level Pressure 30.20 in    
Wind  
Wind Speed 5 mph (SW)    
Max Wind Speed 15 mph    
Max Gust Speed 20 mph    
Visibility 10 miles    
Events      
Averages and records for this station are not official NWS values.
T = Trace of Precipitation, MM = Missing Value Source: NWS Daily Summary

Daily Weather History Graph

Daily Weather History Graph

Search for Another Location

Airport or City:

Trip Planner

Search our weather history database for the weather conditions in past years. The results will help you decide how hot, cold, wet, or windy it might be!

Date:

Astronomy

Apr. 10, 2014 Rise Set
Actual Time 6:50 AM EDT 7:44 PM EDT
Civil Twilight 6:24 AM EDT 8:10 PM EDT
Nautical Twilight 5:54 AM EDT 8:41 PM EDT
Astronomical Twilight 5:22 AM EDT 9:12 PM EDT
Moon 3:36 PM EDT (4/10) 4:02 AM EDT (4/10)
Length of Visible Light 13h 45m
Length of Day
12h 54m
Waxing Gibbous, 79% of the Moon is Illuminated
Apr 10
Waxing Gibbous
Apr 15
Full
Apr 22
Last Quarter
Apr 29
New
May 6
First Quarter

Hourly Weather History & Observations

Time (EDT) Temp. Windchill Dew Point Humidity Pressure Visibility Wind Dir Wind Speed Gust Speed Precip Events Conditions
12:55 AM 47.8 °F - 41.5 °F 79% 30.14 in 10.0 mi SW 4.6 mph - N/A   Clear
1:55 AM 44.8 °F - 41.0 °F 87% 30.14 in 10.0 mi Calm Calm - N/A   Clear
2:55 AM 45.0 °F - 41.0 °F 86% 30.14 in 10.0 mi Calm Calm - N/A   Clear
3:55 AM 43.3 °F - 40.3 °F 89% 30.16 in 10.0 mi Calm Calm - N/A   Clear
4:55 AM 41.7 °F 39.8 °F 39.4 °F 91% 30.18 in 10.0 mi West 3.5 mph - N/A   Clear
5:55 AM 42.1 °F 40.2 °F 39.4 °F 90% 30.20 in 10.0 mi West 3.5 mph - N/A   Clear
6:55 AM 41.0 °F - 38.7 °F 91% 30.23 in 10.0 mi Calm Calm - N/A   Clear
7:55 AM 43.5 °F 41.9 °F 41.0 °F 91% 30.27 in 10.0 mi West 3.5 mph - N/A   Clear
8:55 AM 50.0 °F - 43.7 °F 79% 30.27 in 10.0 mi Calm Calm - N/A   Clear
9:55 AM 59.4 °F - 42.3 °F 53% 30.28 in 10.0 mi Calm Calm - N/A   Clear
10:55 AM 66.2 °F - 38.1 °F 36% 30.29 in 10.0 mi South 4.6 mph - N/A   Clear
11:55 AM 68.5 °F - 37.6 °F 32% 30.27 in 10.0 mi SSW 6.9 mph - N/A   Clear
12:55 PM 71.1 °F - 39.4 °F 32% 30.24 in 10.0 mi SW 8.1 mph 19.6 mph N/A   Clear
1:55 PM 73.2 °F - 38.8 °F 29% 30.22 in 10.0 mi SW 11.5 mph 19.6 mph N/A   Clear
2:55 PM 73.8 °F - 39.6 °F 29% 30.20 in 10.0 mi SSW 10.4 mph 19.6 mph N/A   Clear
3:55 PM 75.0 °F - 39.7 °F 28% 30.18 in 10.0 mi SSW 3.5 mph - N/A   Clear
4:55 PM 75.0 °F - 40.3 °F 29% 30.16 in 10.0 mi SW 13.8 mph - N/A   Clear
5:55 PM 75.2 °F - 39.7 °F 28% 30.16 in 10.0 mi SW 15.0 mph - N/A   Clear
6:55 PM 73.6 °F - 40.1 °F 30% 30.16 in 10.0 mi SW 15.0 mph - N/A   Clear
7:55 PM 67.5 °F - 40.3 °F 37% 30.17 in 10.0 mi WSW 8.1 mph - N/A   Clear
8:55 PM 68.2 °F - 40.6 °F 37% 30.19 in 10.0 mi SSW 6.9 mph - N/A   Clear
9:55 PM 65.7 °F - 46.2 °F 49% 30.20 in 10.0 mi South 8.1 mph - N/A   Clear
10:55 PM 64.2 °F - 45.5 °F 51% 30.21 in 10.0 mi SSW 10.4 mph - N/A   Clear
11:55 PM 62.4 °F - 43.2 °F 49% 30.21 in 10.0 mi SSW 11.5 mph - N/A   Clear